TimeMDT,TemperatureF,Dew PointF,Humidity,Sea Level PressureIn,VisibilityMPH,Wind Direction,Wind SpeedMPH,Gust SpeedMPH,PrecipitationIn,Events,Conditions,WindDirDegrees,DateUTC
12:15 AM,69.8,65.7,87,30.11,10.0,WNW,4.6,-,N/A,,Clear,290,2013-07-24 06:15:00
12:35 AM,69.4,65.5,87,30.11,10.0,NW,6.9,-,N/A,,Clear,310,2013-07-24 06:35:00
12:55 AM,69.4,64.8,85,30.10,10.0,NW,9.2,-,N/A,,Clear,310,2013-07-24 06:55:00
1:15 AM,69.3,64.9,86,30.11,10.0,NW,5.8,-,N/A,,Clear,320,2013-07-24 07:15:00
1:35 AM,69.3,64.9,86,30.10,10.0,WNW,4.6,-,N/A,,Clear,300,2013-07-24 07:35:00
1:55 AM,69.3,65.1,87,30.10,10.0,Calm,Calm,-,N/A,,Clear,0,2013-07-24 07:55:00
2:15 AM,69.3,64.9,86,30.10,10.0,WNW,3.5,-,N/A,,Clear,290,2013-07-24 08:15:00
2:35 AM,69.1,65.3,88,30.09,10.0,WNW,3.5,-,N/A,,Clear,300,2013-07-24 08:35:00
2:55 AM,68.9,65.7,89,30.09,10.0,Calm,Calm,-,N/A,,Clear,0,2013-07-24 08:55:00
3:15 AM,68.9,66.2,91,30.08,10.0,Calm,Calm,-,N/A,,Clear,0,2013-07-24 09:15:00
3:35 AM,68.7,66.4,92,30.08,10.0,Calm,Calm,-,N/A,,Clear,0,2013-07-24 09:35:00
3:55 AM,68.5,66.2,92,30.08,10.0,NNE,3.5,-,N/A,,Clear,20,2013-07-24 09:55:00
4:15 AM,68.9,66.2,91,30.08,10.0,NNE,3.5,-,N/A,,Clear,30,2013-07-24 10:15:00
4:35 AM,68.9,66.2,91,30.07,10.0,Calm,Calm,-,N/A,,Clear,0,2013-07-24 10:35:00
4:55 AM,68.9,66.0,90,30.08,10.0,Calm,Calm,-,N/A,,Clear,0,2013-07-24 10:55:00
5:15 AM,68.9,65.3,88,30.08,10.0,East,3.5,-,N/A,,Clear,90,2013-07-24 11:15:00
5:35 AM,68.9,65.3,88,30.08,10.0,Calm,Calm,-,N/A,,Clear,0,2013-07-24 11:35:00
5:55 AM,69.1,66.2,91,30.08,10.0,WSW,4.6,-,N/A,,Clear,250,2013-07-24 11:55:00
6:15 AM,68.2,66.2,93,30.09,10.0,WSW,4.6,-,N/A,,Clear,240,2013-07-24 12:15:00
6:35 AM,68.0,65.7,92,30.09,10.0,Calm,Calm,-,N/A,,Clear,0,2013-07-24 12:35:00
6:55 AM,68.4,64.8,88,30.09,10.0,WSW,4.6,-,N/A,,Clear,240,2013-07-24 12:55:00
7:15 AM,69.1,64.4,85,30.10,10.0,WSW,3.5,-,N/A,,Clear,250,2013-07-24 13:15:00
7:35 AM,70.2,64.4,82,30.11,10.0,WSW,4.6,-,N/A,,Clear,240,2013-07-24 13:35:00
7:55 AM,70.9,64.4,80,30.11,10.0,WSW,3.5,-,N/A,,Clear,250,2013-07-24 13:55:00
8:15 AM,71.1,63.9,78,30.12,10.0,WSW,3.5,-,N/A,,Clear,240,2013-07-24 14:15:00
8:35 AM,71.6,63.5,76,30.12,10.0,Calm,Calm,-,N/A,,Clear,0,2013-07-24 14:35:00
8:55 AM,72.5,63.5,73,30.13,10.0,Calm,Calm,-,N/A,,Clear,0,2013-07-24 14:55:00
9:15 AM,73.6,64.4,73,30.13,10.0,West,3.5,-,N/A,,Clear,260,2013-07-24 15:15:00
9:35 AM,74.3,64.6,72,30.14,10.0,SW,3.5,-,N/A,,Clear,220,2013-07-24 15:35:00
9:55 AM,75.4,65.3,71,30.14,10.0,WSW,4.6,-,N/A,,Clear,240,2013-07-24 15:55:00
10:15 AM,75.7,64.6,68,30.14,10.0,West,3.5,-,N/A,,Clear,270,2013-07-24 16:15:00
10:35 AM,76.8,64.9,67,30.15,10.0,WSW,4.6,-,N/A,,Clear,250,2013-07-24 16:35:00
10:55 AM,77.4,65.1,66,30.15,10.0,SW,5.8,-,N/A,,Clear,220,2013-07-24 16:55:00
11:15 AM,79.0,64.0,60,30.15,10.0,SSW,3.5,-,N/A,,Clear,210,2013-07-24 17:15:00
11:35 AM,79.3,64.4,60,30.15,10.0,WNW,3.5,-,N/A,,Clear,300,2013-07-24 17:35:00
11:55 AM,81.3,63.1,54,30.15,10.0,SE,4.6,-,N/A,,Clear,130,2013-07-24 17:55:00
12:15 PM,81.0,62.2,53,30.14,10.0,SSW,6.9,-,N/A,,Clear,200,2013-07-24 18:15:00
12:35 PM,83.3,61.7,48,30.14,10.0,South,5.8,-,N/A,,Clear,190,2013-07-24 18:35:00
12:55 PM,83.1,62.1,49,30.13,10.0,SSE,4.6,-,N/A,,Clear,160,2013-07-24 18:55:00
1:15 PM,84.9,60.4,44,30.12,10.0,SSE,3.5,-,N/A,,Clear,150,2013-07-24 19:15:00
1:35 PM,85.1,60.1,43,30.11,10.0,SSE,6.9,-,N/A,,Clear,150,2013-07-24 19:35:00
1:55 PM,86.4,60.4,42,30.10,10.0,South,6.9,17.3,N/A,,Clear,170,2013-07-24 19:55:00
2:15 PM,86.2,59.9,41,30.08,10.0,South,10.4,-,N/A,,Clear,190,2013-07-24 20:15:00
2:35 PM,87.6,59.2,38,30.07,10.0,SSE,9.2,18.4,N/A,,Clear,160,2013-07-24 20:35:00
2:55 PM,88.2,59.7,38,30.06,10.0,SSE,12.7,18.4,N/A,,Clear,150,2013-07-24 20:55:00
3:15 PM,87.1,58.3,38,30.05,10.0,South,8.1,-,N/A,,Scattered Clouds,170,2013-07-24 21:15:00
3:35 PM,88.7,57.4,35,30.05,10.0,South,6.9,-,N/A,,Scattered Clouds,180,2013-07-24 21:35:00
3:55 PM,88.7,56.8,34,30.05,10.0,South,9.2,-,N/A,,Scattered Clouds,170,2013-07-24 21:55:00
4:15 PM,89.4,56.1,32,30.06,10.0,South,9.2,-,N/A,,Clear,190,2013-07-24 22:15:00
4:35 PM,88.9,56.3,33,30.06,10.0,South,5.8,-,N/A,,Clear,170,2013-07-24 22:35:00
4:55 PM,89.1,55.9,32,30.05,10.0,SW,6.9,-,N/A,,Scattered Clouds,230,2013-07-24 22:55:00
5:15 PM,90.3,56.5,32,30.05,10.0,South,9.2,-,N/A,,Scattered Clouds,180,2013-07-24 23:15:00
5:35 PM,89.4,56.5,33,30.04,10.0,South,8.1,-,N/A,,Clear,170,2013-07-24 23:35:00
5:55 PM,88.7,56.8,34,30.04,10.0,Calm,Calm,-,N/A,,Clear,0,2013-07-24 23:55:00
6:15 PM,88.3,56.7,34,30.03,10.0,South,5.8,-,N/A,,Clear,180,2013-07-25 00:15:00
6:35 PM,88.3,56.5,34,30.03,10.0,SSW,4.6,-,N/A,,Clear,210,2013-07-25 00:35:00
6:55 PM,88.3,56.3,34,30.03,10.0,South,4.6,-,N/A,,Clear,170,2013-07-25 00:55:00
7:15 PM,88.0,56.5,34,30.04,10.0,WSW,5.8,-,N/A,,Clear,240,2013-07-25 01:15:00
7:35 PM,87.8,56.5,34,30.06,10.0,South,3.5,-,N/A,,Clear,190,2013-07-25 01:35:00
7:55 PM,86.9,57.4,37,30.07,10.0,Calm,Calm,-,N/A,,Clear,0,2013-07-25 01:55:00
8:15 PM,86.4,57.6,37,30.08,10.0,SSW,3.5,-,N/A,,Clear,200,2013-07-25 02:15:00
8:35 PM,85.8,57.7,38,30.08,10.0,West,5.8,-,N/A,,Clear,260,2013-07-25 02:35:00
8:55 PM,84.6,58.1,40,30.08,10.0,WNW,9.2,-,N/A,,Scattered Clouds,300,2013-07-25 02:55:00
9:15 PM,78.1,60.6,55,30.09,10.0,NNW,19.6,25.3,N/A,,Scattered Clouds,330,2013-07-25 03:15:00
9:35 PM,77.0,61.9,59,30.12,10.0,ENE,6.9,-,N/A,,Mostly Cloudy,60,2013-07-25 03:35:00
9:55 PM,76.1,60.1,57,30.14,10.0,East,16.1,-,N/A,,Mostly Cloudy,90,2013-07-25 03:55:00
10:15 PM,72.5,63.9,74,30.18,10.0,SSE,13.8,18.4,N/A,Rain,Light Rain,150,2013-07-25 04:15:00
10:35 PM,68.0,64.4,88,30.21,5.0,SSE,12.7,-,0.04,Rain,Rain,160,2013-07-25 04:35:00
10:55 PM,67.1,63.3,88,30.19,7.0,Calm,Calm,-,0.09,Rain-Thunderstorm,Light Thunderstorms and Rain,0,2013-07-25 04:55:00
11:15 PM,67.6,64.8,90,30.20,10.0,SSE,4.6,-,N/A,Rain-Thunderstorm,Light Thunderstorms and Rain,150,2013-07-25 05:15:00
11:35 PM,67.6,65.1,92,30.20,10.0,NNE,4.6,-,N/A,Rain,Rain,20,2013-07-25 05:35:00
11:55 PM,68.0,65.7,92,30.19,10.0,North,6.9,-,0.01,Rain-Thunderstorm,Thunderstorms and Rain,350,2013-07-25 05:55:00